Regional Weather Roundup
Issued by NWS

Home | Current Version | Previous Version | Graphics & Text | Print | Product List | Glossary On
Versions: 1 2 3 4 5 6 7 8 9 10 11 12 13 14 15 16 17 18 19 20 21 22 23 24 25 26 27 28 29 30 31 32 33 34 35 36 37 38 39 40 41 42 43 44 45 46 47 48 49 50
000
ASUS43 KFSD 011502
RWRSD

WEATHER ROUNDUP FOR SOUTH DAKOTA
NATIONAL WEATHER SERVICE SIOUX FALLS SD
1000 AM CDT WED OCT 01 2014

NOTE: "FAIR" INDICATES FEW OR NO CLOUDS BELOW 12,000 FEET WITH NO
SIGNIFICANT WEATHER AND/OR OBSTRUCTIONS TO VISIBILITY.


SDZ001>005-009-010-012>017-011600-
NORTHWEST AND NORTH CENTRAL SOUTH DAKOTA

CITY           SKY/WX    TMP DP  RH WIND       PRES   REMARKS
BUFFALO          N/A     51  47  86 W21G26    29.75R
FAITH            N/A     57  49  74 NW17G29   29.78R
MOBRIDGE       PTSUNNY   59  52  77 W6        29.72R
$$

SDZ012>016-024>037-041>051-057-063-072>074-011600-
SOUTHWEST AND SOUTH CENTRAL SOUTH DAKOTA

CITY           SKY/WX    TMP DP  RH WIND       PRES   REMARKS
RAPID CTY ARPT PTSUNNY   55  45  68 N10       29.83R
PIERRE         SUNNY     60  50  69 W9        29.77R
CUSTER         MOSUNNY   47  38  71 N5        29.87R
ELLSWORTH AFB  MOSUNNY   56  46  67 N14       29.83R
PHILIP         SUNNY     59  49  69 NW17      29.81R
PINE RIDGE     SUNNY     55  47  74 SW6       29.84S
WINNER         FAIR      63  49  60 NW15      29.79R
$$

SDZ004>011-016>023-039-040-011600-
NORTHEAST SOUTH DAKOTA

CITY           SKY/WX    TMP DP  RH WIND       PRES   REMARKS
ABERDEEN       PTSUNNY   61  52  72 W12       29.71R
WATERTOWN      CLOUDY    62  59  90 SW12      29.71S
SISSETON         N/A     64  59  83 W12       29.68S
$$

SDZ017-020-022-023-036>040-048>070-011600-
SOUTHEAST SOUTH DAKOTA

CITY           SKY/WX    TMP DP  RH WIND       PRES   REMARKS
SIOUX FALLS    CLOUDY    65  60  84 S8        29.74S
HURON          CLOUDY    63  55  75 W9        29.74R
CHAMBERLAIN    MOSUNNY   60  50  69 NW9       29.77R
MITCHELL       CLOUDY    64  61  90 W6        29.74R
YANKTON        CLOUDY    64  61  88 SW6       29.73R
$$

ABBREVIATIONS USED IN REMARKS
   TC - TEMPERATURE IN CELSIUS
  WCI - WIND CHILL INDEX
   HX - HEAT INDEX
  VSB - VISIBILITY



USA.gov is the U.S. government's official web portal to all federal, state and local government web resources and services.